Погода в Сырдарье

Узбекистан     40°50′19″N   68°39′51″E
темп.,
°C
ветер,
м/с
пор.,
м/с
влажн.,
%
обл.,
%
осадки,
мм/ч
давл.,
гПа
погр.,
м
27 февраля, сб
сб2723:00−3ссв2258100 0.0 103074
02:00−3всв1159100 0.0 102848
05:00−3всв1258100 0.0 102875
08:00−2в2349100 0.0 1028181
11:00+2юв4737100 0.1 1029526
14:00+5ююз343284 0.0 1028983
17:00+6ююв343753 0.0 10281159
20:00+3вюв33543 0.0 103040
28 февраля, вс
вс2823:00+2юв22591 0.0 103022
02:000ююв22480 0.0 102847
05:000вюв12470 0.0 102740
08:00+1вюв12460 0.0 102663
11:00+6вюв13330 0.0 1023501
14:00+10всв23290 0.0 1020719
17:00+11св22310 0.0 1020503
20:00+6св23520 0.0 102133
1 марта, пн
пн123:00+5св115441 0.0 102122
02:00+4в1156100 0.0 102122
05:00+4юв2356100 0.0 102126
08:00+4юв3552100 0.0 102192
11:00+11юв463158 0.0 1020385
14:00+16юв45200 0.0 1018637
17:00+16ююв46240 0.0 1018311
20:00+10ююв48320 0.0 1020153
2 марта, вт
вт223:00+9ююв510340 0.0 1021181
02:00+10ююв7133083 0.0 1021208
05:00+9ююв5113391 0.0 1021180
08:00+8ююв2338100 0.0 102290
11:00+13юв2328100 0.0 1022415
14:00+15вюв2325100 0.0 1020719
17:00+16с1230100 0.0 1020120
20:00+13св2338100 0.0 102235
3 марта, ср
ср323:00+11сз1246100 0.0 102224
02:00+11всв1247100 0.0 102135
05:00+9ссв2368100 0.1 102176
08:00+8в3484100 2.1 1021151
11:00+11юв2274100 2.3 1021407
14:00+11ссз3473100 0.4 1019524
17:00+9ссв3382100 2.6 1019238
20:00+9в3678100 0.3 1020274